This demonstration page uses our WeatherBlox Daily Observations layout. Learn more.

Hourly Observations for July 5, 2020

Temp ( °F °C ) Dew Point ( °F °C ) Humidity (%) Winds ( mph kmh ) Pressure ( in mb ) Visibility ( mi km ) Precip ( " mm )
12:15 am 00:15 Clear 69 20.6 64 18 85 85 SE 7 11 29.95 1014 10 16.0934 0 0
12:35 am 00:35 Partly Cloudy 69 20.5 64 17.8 85 85 SE 7 11 29.96 1015 10 16.0934 0 0
12:55 am 00:55 Mostly Cloudy 70 21.2 64 18 82 82 SSE 5 7 29.97 1015 10 16.0934 0 0
1:15 am 01:15 Mostly Cloudy 70 21 64 18 83 83 SE 7 11 29.95 1014 10 16.0934 0 0
1:35 am 01:35 Clear 68 20 64 17.6 86 86 ESE 8 13 29.94 1014 10 16.0934 0 0
1:55 am 01:55 Clear 68 20 64 17.7 87 87 ESE 7 11 29.94 1014 10 16.0934 0 0
2:15 am 02:15 Clear 68 20.2 64 17.6 85 85 SE 7 11 29.94 1014 10 16.0934 0 0
2:35 am 02:35 Clear 67 19.7 64 17.5 87 87 ESE 7 11 29.94 1014 10 16.0934 0 0
2:55 am 02:55 Clear 66 19.1 64 17.5 91 91 SE 6 9 29.94 1014 10 16.0934 0 0
3:15 am 03:15 Clear 67 19.3 64 17.6 90 90 Calm 29.94 1014 10 16.0934 0 0
3:35 am 03:35 Clear 67 19.3 64 17.5 89 89 SE 6 9 29.95 1014 10 16.0934 0 0
3:55 am 03:55 Clear 66 19 64 17.5 91 91 SE 5 7 29.96 1014 10 16.0934 0 0
4:15 am 04:15 Clear 65 18.5 63 17.3 93 93 SE 5 7 29.97 1015 10 16.0934 0 0
4:35 am 04:35 Clear 65 18.6 64 17.5 93 93 SE 5 7 29.97 1015 7 11.26538 0 0
4:55 am 04:55 Clear 65 18.2 63 17.3 95 95 ESE 5 7 29.95 1014 7 11.26538 0 0
5:15 am 05:15 Clear with Mist and Fog 66 18.8 65 18.1 96 96 Calm 29.97 1015 5 8.0467 0 0
5:35 am 05:35 Partly Cloudy with Mist and Fog 65 18.4 64 17.6 95 95 ESE 6 9 29.97 1015 5 8.0467 0 0
5:55 am 05:55 Mostly Cloudy with Mist and Fog 65 18.6 64 18 96 96 Calm 29.97 1015 4 6.43736 0 0
6:15 am 06:15 Partly Cloudy with Mist and Fog 66 18.9 65 18.2 96 96 SE 5 7 29.97 1015 4 6.43736 0 0
6:35 am 06:35 Sunny with Mist and Fog 66 19 65 18.3 96 96 Calm 29.97 1015 3 4.82802 0 0
6:55 am 06:55 Sunny with Mist and Fog 67 19.2 65 18.6 96 96 Calm 29.96 1015 2.5 4.02335 0 0
7:15 am 07:15 Sunny with Mist and Fog 67 19.4 66 18.9 97 97 Calm 29.97 1015 2.5 4.02335 0 0
7:35 am 07:35 Sunny with Mist and Fog 69 20.6 68 19.8 95 95 Calm 29.96 1015 4 6.43736 0 0
7:55 am 07:55 Sunny with Mist and Fog 71 21.5 68 20.2 92 92 SSE 5 7 29.94 1014 5 8.0467 0 0
8:15 am 08:15 Sunny with Mist and Fog 71 21.9 69 20.6 92 92 SSE 5 7 29.95 1014 5 8.0467 0 0
8:35 am 08:35 Sunny 73 22.5 70 21 91 91 SSE 3 6 29.94 1014 7 11.26538 0 0
8:55 am 08:55 Partly Cloudy 73 23 70 21.2 90 90 SSE 3 6 29.93 1014 7 11.26538 0 0
9:15 am 09:15 Mostly Cloudy 75 23.9 71 21.4 86 86 SW 3 6 29.94 1014 10 16.0934 0 0
9:35 am 09:35 Mostly Cloudy 75 23.9 71 21.5 86 86 Calm 29.95 1014 10 16.0934 0 0
9:55 am 09:55 Cloudy 76 24.2 71 21.5 85 85 Calm 29.93 1014 10 16.0934 0 0
10:15 am 10:15 Cloudy 76 24.6 71 21.5 83 83 SW 3 6 29.95 1014 10 16.0934 0 0
10:35 am 10:35 Cloudy 78 25.8 70 21.2 76 76 S 5 7 29.93 1014 10 16.0934 0 0
10:55 am 10:55 Mostly Cloudy 80 26.9 69 20.5 68 68 SSE 5 7 29.92 1013 10 16.0934 0 0
11:15 am 11:15 Partly Cloudy 81 27.4 68 19.9 64 64 S 5 7 29.9 1012 10 16.0934 0 0
11:35 am 11:35 Mostly Cloudy 80 26.9 66 18.9 62 62 S 7 11 29.92 1013 10 16.0934 0 0
11:55 am 11:55 Partly Cloudy 81 27.4 64 18 57 57 Calm 29.91 1013 10 16.0934 0 0
12:15 pm 12:15 Partly Cloudy 80 26.9 65 18.1 59 59 Calm 29.9 1013 10 16.0934 0 0
12:35 pm 12:35 Mostly Cloudy 82 28 64 17.7 54 54 SE 6 9 29.89 1012 10 16.0934 0 0
12:55 pm 12:55 Partly Cloudy 83 28.3 61 16.2 48 48 E 6 9 29.9 1013 10 16.0934 0 0
1:15 pm 13:15 Sunny 84 28.7 58 14.7 42 42 Calm 29.9 1012 10 16.0934 0 0
1:35 pm 13:35 Sunny 84 28.9 61 16.1 46 46 S 6 9 29.88 1012 10 16.0934 0 0
1:55 pm 13:55 Sunny 84 29.1 59 15 42 42 ESE 3 6 29.87 1012 10 16.0934 0 0
2:15 pm 14:15 Sunny 85 29.4 54 12.2 35 35 Calm 29.88 1012 10 16.0934 0 0
2:35 pm 14:35 Sunny 85 29.4 56 13.3 37 37 Calm 29.88 1012 10 16.0934 0 0
2:55 pm 14:55 Sunny 85 29.4 57 14.1 39 39 Calm 29.86 1011 10 16.0934 0 0
3:15 pm 15:15 Sunny 85 29.2 56 13.3 38 38 SSE 3 6 29.85 1011 10 16.0934 0 0
3:35 pm 15:35 Sunny 85 29.3 58 14.4 40 40 S 3 6 29.84 1011 10 16.0934 0 0
3:55 pm 15:55 Sunny 84 28.7 58 14.4 42 42 Calm 29.86 1011 10 16.0934 0 0
4:15 pm 16:15 Sunny 85 29.2 59 15.1 42 42 SSE 3 6 29.85 1011 10 16.0934 0 0
4:35 pm 16:35 Sunny 85 29.2 61 16.3 46 46 SE 3 6 29.85 1011 10 16.0934 0 0
4:55 pm 16:55 Sunny 85 29.7 61 16.3 44 44 Calm 29.84 1010 10 16.0934 0 0
5:15 pm 17:15 Sunny 85 29.6 62 16.8 46 46 S 5 7 29.83 1010 10 16.0934 0 0
5:35 pm 17:35 Sunny 85 29.5 64 17.5 48 48 ESE 3 6 29.82 1010 10 16.0934 0 0
5:55 pm 17:55 Sunny 85 29.2 63 17 48 48 Calm 29.82 1010 10 16.0934 0 0
6:15 pm 18:15 Sunny 85 29.5 64 17.5 48 48 ESE 6 9 29.81 1010 10 16.0934 0 0
6:35 pm 18:35 Sunny 85 29.5 65 18.1 50 50 E 6 9 29.81 1010 10 16.0934 0 0
6:55 pm 18:55 Partly Cloudy 85 29.5 65 18.3 51 51 ESE 8 13 29.8 1009 10 16.0934 0 0
7:15 pm 19:15 Partly Cloudy 85 29.2 65 18.4 52 52 ESE 6 9 29.8 1009 10 16.0934 0 0
7:35 pm 19:35 Sunny 84 29 65 18.2 52 52 SE 6 9 29.81 1009 10 16.0934 0 0
7:55 pm 19:55 Sunny 83 28.5 66 18.9 56 56 ESE 6 9 29.81 1009 10 16.0934 0 0
8:15 pm 20:15 Sunny 82 27.7 67 19.6 61 61 ESE 6 9 29.82 1010 10 16.0934 0 0
8:35 pm 20:35 Sunny 81 27 68 20.1 66 66 SE 5 7 29.82 1010 10 16.0934 0 0
8:55 pm 20:55 Sunny 78 25.8 69 20.7 74 74 SE 5 7 29.83 1010 10 16.0934 0 0
9:15 pm 21:15 Clear 76 24.6 69 20.8 79 79 ESE 3 6 29.85 1011 10 16.0934 0 0
9:35 pm 21:35 Clear 76 24.4 69 20.5 79 79 Calm 29.85 1011 10 16.0934 0 0
9:55 pm 21:55 Clear 74 23.5 69 20.5 83 83 ESE 3 6 29.88 1012 10 16.0934 0 0
10:15 pm 22:15 Clear 73 22.9 69 20.3 85 85 ESE 5 7 29.89 1012 10 16.0934 0 0
10:35 pm 22:35 Clear 73 22.9 68 20.2 85 85 SE 3 6 29.89 1012 10 16.0934 0 0
10:55 pm 22:55 Clear 72 22.2 68 20 87 87 Calm 29.91 1013 10 16.0934 0 0
11:15 pm 23:15 Clear 71 21.5 68 19.8 90 90 ESE 5 7 29.91 1013 10 16.0934 0 0
11:35 pm 23:35 Clear 71 21.8 68 20.2 91 91 E 6 9 29.92 1013 10 16.0934 0 0
11:55 pm 23:55 Clear 71 21.9 69 20.4 91 91 E 5 7 29.92 1013 10 16.0934 0 0

Powered by AerisWeather